Bowling Green, KY

10:48 PM CST on November 18, 2017 (GMT -0600)
Bowling Green-Warren County Regional

Weather History for KBWG - May, 2013

Change the Weather History Date:

Saturday, May 11, 2013

  Actual Average Record
Temperature  
Mean Temperature 61 °F 65 °F  
Max Temperature 67 °F 76 °F 94 °F (1936)
Min Temperature 55 °F 54 °F 32 °F (1885)
Degree Days  
Heating Degree Days 4 3  
Month to date heating degree days 30 40  
Since 1 July heating degree days 3848 4009  
Cooling Degree Days 0 3  
Month to date cooling degree days 22 25  
Year to date cooling degree days 75 61  
Growing Degree Days 12 (Base 50)    
Moisture  
Dew Point 54 °F    
Average Humidity 69    
Maximum Humidity 87    
Minimum Humidity 51    
Precipitation  
Precipitation 0.01 in 0.18 in 1.54 in (1894)
Month to date precipitation 3.54 2.03  
Year to date precipitation 23.14 18.35  
Snow  
Snow 0.00 in 0.00 in 0.00 in ()
Month to date snowfall 0.0 0.0  
Since 1 July snowfall 3.8 9.1  
Snow Depth 0.00 in    
Sea Level Pressure  
Sea Level Pressure 29.97 in    
Wind  
Wind Speed 5 mph (WNW)    
Max Wind Speed 28 mph    
Max Gust Speed 35 mph    
Visibility 10 miles    
Events Rain    
T = Trace of Precipitation, MM = Missing Value Source: NWS Daily Summary

Daily Weather History Graph

Daily Weather History Graph

Search for Another Location

Airport or City:

Trip Planner

Search our weather history database for the weather conditions in past years. The results will help you decide how hot, cold, wet, or windy it might be!

Date:

Astronomy

May. 11, 2013 Rise Set
Actual Time 5:40 AM CDT 7:43 PM CDT
Civil Twilight 5:12 AM CDT 8:12 PM CDT
Nautical Twilight 4:37 AM CDT 8:47 PM CDT
Astronomical Twilight 3:59 AM CDT 9:25 PM CDT
Moon 6:49 AM CDT (5/11) 9:22 PM CDT (5/11)
Length of Visible Light 15h 00m
Length of Day
14h 02m
Waxing Crescent, 3% of the Moon is Illuminated
May 11
Waxing Crescent
May 17
First Quarter
May 24
Full
May 31
Last Quarter
Jun 8
New

Hourly Weather History & Observations

Time (CDT) Temp. Dew Point Humidity Pressure Visibility Wind Dir Wind Speed Gust Speed Precip Events Conditions
12:01 AM 64.4 °F 60.8 °F 88% 29.93 in 10.0 mi WSW 3.5 mph - 0.01 in Rain Light Rain
12:43 AM 64.4 °F 60.8 °F 88% 29.92 in 10.0 mi WSW 3.5 mph - 0.02 in Rain Light Rain
12:53 AM 64.0 °F 60.1 °F 87% 29.92 in 10.0 mi WSW 4.6 mph - 0.02 in   Overcast
1:14 AM 64.4 °F 60.8 °F 88% 29.93 in 10.0 mi West 6.9 mph - N/A   Overcast
1:36 AM 64.4 °F 60.8 °F 88% 29.93 in 10.0 mi West 4.6 mph - N/A   Overcast
1:45 AM 64.4 °F 60.8 °F 88% 29.92 in 10.0 mi West 4.6 mph - N/A   Overcast
1:53 AM 64.0 °F 60.1 °F 87% 29.91 in 10.0 mi Calm Calm - N/A   Overcast
2:53 AM 64.0 °F 60.1 °F 87% 29.92 in 10.0 mi NW 4.6 mph - N/A   Overcast
3:53 AM 63.0 °F 59.0 °F 87% 29.92 in 6.0 mi NW 5.8 mph - 0.00 in Rain Light Rain
4:46 AM 62.6 °F 57.2 °F 82% 29.94 in 9.0 mi NW 5.8 mph - 0.00 in   Overcast
4:53 AM 62.1 °F 57.9 °F 86% 29.93 in 9.0 mi NW 4.6 mph - 0.00 in   Overcast
5:08 AM 60.8 °F 57.2 °F 88% 29.93 in 8.0 mi NW 4.6 mph - N/A   Overcast
5:24 AM 60.8 °F 57.2 °F 88% 29.93 in 8.0 mi NNW 6.9 mph - N/A   Overcast
5:53 AM 61.0 °F 55.9 °F 83% 29.93 in 10.0 mi NNW 4.6 mph - N/A   Overcast
6:53 AM 60.1 °F 55.0 °F 83% 29.95 in 10.0 mi Calm Calm - N/A   Overcast
7:01 AM 60.8 °F 55.4 °F 82% 29.97 in 10.0 mi NW 4.6 mph - N/A   Overcast
7:35 AM 60.8 °F 53.6 °F 77% 29.98 in 10.0 mi West 4.6 mph - N/A   Overcast
7:53 AM 61.0 °F 54.0 °F 78% 29.96 in 10.0 mi NW 4.6 mph - N/A   Mostly Cloudy
8:11 AM 60.8 °F 53.6 °F 77% 29.97 in 10.0 mi WNW 5.8 mph - N/A   Mostly Cloudy
8:53 AM 61.0 °F 54.0 °F 78% 29.97 in 10.0 mi Variable 3.5 mph - N/A   Overcast
9:34 AM 60.8 °F 53.6 °F 77% 29.98 in 10.0 mi West 8.1 mph 34.5 mph N/A   Squalls
9:53 AM 61.0 °F 53.1 °F 75% 29.99 in 10.0 mi West 8.1 mph - 0.01 in   Overcast
10:53 AM 61.0 °F 53.1 °F 75% 29.98 in 10.0 mi NW 8.1 mph - N/A   Overcast
11:53 AM 61.0 °F 53.1 °F 75% 29.99 in 10.0 mi Variable 6.9 mph - N/A   Overcast
12:53 PM 61.0 °F 53.1 °F 75% 29.99 in 10.0 mi WNW 4.6 mph - N/A   Overcast
1:13 PM 60.8 °F 51.8 °F 72% 29.99 in 10.0 mi West 6.9 mph - N/A   Overcast
1:53 PM 60.1 °F 52.0 °F 75% 30.00 in 10.0 mi NW 6.9 mph - 0.00 in   Overcast
2:21 PM 62.6 °F 51.8 °F 68% 30.00 in 10.0 mi WNW 9.2 mph - N/A   Overcast
2:53 PM 63.0 °F 53.1 °F 70% 29.99 in 10.0 mi West 8.1 mph - N/A   Overcast
3:53 PM 64.9 °F 51.1 °F 61% 29.99 in 10.0 mi NW 8.1 mph - N/A   Overcast
4:53 PM 66.0 °F 51.1 °F 59% 29.99 in 10.0 mi NW 8.1 mph - N/A   Partly Cloudy
5:53 PM 66.0 °F 50.0 °F 56% 29.97 in 10.0 mi West 4.6 mph - N/A   Clear
6:53 PM 64.9 °F 48.9 °F 56% 29.96 in 10.0 mi West 4.6 mph - N/A   Clear
7:53 PM 63.0 °F 48.9 °F 60% 29.97 in 10.0 mi Calm Calm - N/A   Partly Cloudy
8:53 PM 62.1 °F 51.1 °F 67% 29.99 in 10.0 mi SW 4.6 mph - N/A   Mostly Cloudy
9:53 PM 62.1 °F 50.0 °F 65% 30.03 in 10.0 mi North 4.6 mph - N/A   Overcast
10:53 PM 59.0 °F 45.0 °F 60% 30.06 in 10.0 mi NNW 8.1 mph - N/A   Partly Cloudy
11:53 PM 57.0 °F 39.9 °F 53% 30.08 in 10.0 mi NNW 5.8 mph - N/A   Clear